Temp
-1 -2 -2 -5 -3 -3 -7 -12 -8 -8 -9 -7 -7 -7 -4 -3 -3 -3 -3 -2 -2 -2 -2 -3 -3 -3 -2 -2 -1 -1 -2 -1 1 2 5 8 11 11 12 13 12 14 14 14
-0 -2 -2 -2 -3 -3 -3 -10 -9 -8 -7 -5 -3 -3 -4 -2 -3 -3 -3 -2 -2 -2 -2 -2 -2 -2 -3 -2 -2 -1 -2 -2 -1 2 3 5 9 10 11 12 12 12 13 13
-1 -2 -3 -4 -5 -5 -4 -6 -10 -7 -8 -7 -6 -4 -3 -3 -3 -3 -2 -2 -2 -2 -2 -2 -2 -2 -2 -3 -2 -1 -1 -2 -2 -1 1 3 6 8 11 11 12 12 13 12
-1 -2 -7 -3 -3 -4 -5 -3 -3 -6 -9 -5 -4 -3 -3 -3 -3 -2 -2 -2 -2 -2 -2 -2 -2 -2 -2 -3 -3 -1 -1 -2 -2 -2 -2 -0 4 7 10 11 11 11 12 12
-7 -4 -2 -2 -1 -4 -5 -6 -2 -4 -4 -2 -2 -3 -3 -2 -2 -2 -2 -2 -3 -2 -3 -3 -2 -2 -2 -2 -3 -3 -2 -2 -2 -2 -2 -2 1 5 8 9 11 12 11 11
-4 -5 -7 -4 -1 -1 -3 -6 -2 -2 -3 -3 -3 -6 -8 -2 -2 -2 -3 -3 -3 -3 -3 -3 -3 -3 -3 -2 -3 -3 -3 -3 -2 -2 -2 -3 -2 2 7 8 10 11 11 11
-4 -10 -7 -2 -1 -1 -5 -6 -2 -2 -2 -2 -6 -3 -2 -2 -3 -3 -3 -3 -4 -4 -4 -3 -3 -3 -3 -3 -3 -3 -3 -2 -3 -3 -2 -2 -2 0 4 7 9 10 10 10
-4 -10 -8 -1 -1 -5 -4 -2 -2 -2 -2 -2 -2 -2 -3 -3 -3 -4 -4 -4 -4 -4 -4 -4 -4 -4 -3 -3 -3 -3 -3 -3 -4 -3 -3 -2 -2 -1 1 4 6 8 8 8
-4 -5 -2 -1 -1 -1 -1 -2 -2 -2 -3 -3 -3 -3 -3 -4 -4 -4 -5 -5 -5 -5 -5 -5 -5 -4 -4 -4 -3 -3 -3 -3 -4 -4 -4 -3 -3 -2 -1 -0 1 3 6 6
-2 -1 -3 -3 -2 -1 -2 -2 -2 -3 -3 -3 -3 -3 -4 -4 -4 -5 -5 -6 -6 -6 -6 -6 -5 -5 -5 -4 -4 -4 -4 -3 -3 -4 -5 -3 -3 -2 -3 -2 -2 -1 -0 1
-3 -2 -2 -2 -1 -1 -2 -2 -2 -3 -3 -3 -3 -4 -4 -5 -5 -5 -6 -6 -6 -6 -7 -6 -6 -6 -6 -5 -5 -4 -4 -4 -4 -3 -4 -5 -3 -3 -3 -3 -2 -2 -2 -2
-4 -1 -2 -1 -1 -2 -2 -3 -3 -3 -3 -4 -4 -5 -5 -5 -6 -6 -6 -7 -7 -7 -7 -7 -7 -7 -6 -6 -6 -5 -5 -4 -4 -4 -3 -3 -3 -3 -3 -3 -2 -2 -2 -1
-2 -1 -1 -2 -2 -3 -3 -3 -3 -4 -4 -4 -5 -5 -5 -6 -6 -7 -7 -8 -8 -8 -8 -8 -8 -8 -7 -7 -6 -6 -6 -5 -5 -4 -4 -3 -4 -3 -3 -3 -3 -3 -2 -2
-2 -2 -2 -3 -3 -3 -3 -4 -4 -4 -5 -5 -5 -6 -6 -7 -7 -8 -8 -8 -8 -8 -8 -8 -8 -7 -7 -7 -7 -6 -6 -6 -5 -5 -4 -4 -3 -3 -3 -3 -3 -3 -3 -3
-2 -2 -3 -3 -3 -3 -4 -4 -4 -5 -5 -6 -6 -7 -7 -8 -8 -9 -8 -9 -8 -8 -8 -8 -8 -7 -7 -7 -7 -7 -7 -6 -6 -6 -5 -4 -4 -3 -3 -3 -3 -3 -3 -3
-2 -2 -3 -3 -3 -4 -4 -5 -5 -6 -6 -7 -7 -8 -8 -8 -9 -9 -9 -9 -9 -8 -8 -9 -9 -9 -8 -8 -7 -7 -7 -7 -6 -6 -6 -5 -5 -4 -4 -4 -3 -4 -3 -3
-2 -3 -3 -4 -4 -5 -6 -6 -6 -7 -7 -8 -8 -8 -9 -9 -9 -9 -9 -9 -9 -9 -10 -9 -9 -9 -8 -8 -8 -7 -7 -7 -7 -7 -6 -6 -6 -5 -5 -4 -4 -4 -4 -4
-2 -3 -4 -4 -5 -6 -6 -7 -7 -8 -8 -8 -9 -9 -9 -10 -10 -10 -10 -10 -10 -10 -10 -10 -9 -9 -9 -8 -8 -8 -8 -7 -7 -7 -7 -7 -6 -6 -6 -6 -5 -5 -4 -4
-3 -3 -4 -5 -5 -6 -7 -7 -8 -8 -9 -9 -9 -10 -10 -10 -11 -11 -11 -11 -11 -12 -12 -12 -12 -12 -11 -10 -9 -8 -7 -8 -8 -7 -7 -7 -7 -7 -6 -6 -6 -6 -5 -5
-3 -4 -5 -5 -6 -6 -7 -8 -9 -9 -9 -10 -10 -11 -11 -12 -12 -12 -12 -12 -13 -13 -13 -13 -12 -12 -11 -11 -10 -9 -8 -8 -8 -8 -8 -8 -8 -7 -7 -7 -7 -6 -6 -6
-4 -5 -5 -6 -6 -7 -8 -9 -9 -10 -10 -11 -11 -12 -12 -12 -12 -12 -13 -13 -14 -13 -13 -13 -13 -13 -12 -11 -10 -10 -9 -9 -8 -8 -8 -8 -8 -8 -7 -7 -7 -7 -7 -7
-4 -5 -6 -6 -7 -8 -9 -9 -10 -10 -11 -11 -12 -12 -12 -13 -13 -13 -13 -13 -13 -13 -13 -13 -13 -13 -13 -11 -11 -10 -10 -10 -9 -9 -9 -9 -9 -8 -8 -8 -8 -8 -7 -7
-5 -5 -6 -7 -8 -9 -9 -10 -10 -11 -11 -12 -12 -12 -13 -13 -13 -13 -13 -13 -13 -13 -13 -13 -13 -13 -12 -12 -12 -12 -11 -11 -10 -10 -11 -10 -10 -10 -10 -10 -9 -9 -9 -9
-5 -6 -6 -7 -8 -9 -9 -10 -11 -11 -12 -12 -12 -12 -12 -12 -13 -13 -13 -13 -13 -12 -12 -12 -12 -12 -12 -12 -12 -12 -12 -12 -12 -12 -12 -12 -12 -11 -11 -11 -11 -10 -11 -10
-5 -6 -7 -7 -8 -9 -10 -10 -11 -12 -12 -12 -12 -12 -12 -12 -12 -12 -12 -12 -12 -11 -11 -11 -11 -12 -12 -12 -12 -12 -13 -13 -13 -13 -13 -13 -13 -13 -13 -13 -13 -13 -12 -12
-5 -6 -7 -7 -8 -9 -10 -10 -11 -12 -12 -12 -12 -12 -12 -12 -12 -12 -12 -11 -11 -11 -11 -11 -11 -12 -12 -12 -12 -13 -13 -13 -13 -13 -13 -14 -14 -14 -14 -14 -15 -15 -14 -14
-5 -6 -7 -8 -9 -10 -10 -10 -11 -11 -12 -12 -11 -11 -11 -11 -11 -11 -11 -11 -11 -11 -11 -12 -12 -12 -13 -13 -13 -12 -13 -13 -13 -13 -14 -14 -14 -14 -15 -15 -15 -16 -15 -15
Height
1564 1565 1563 1568 1563 1560 1567 1580 1578 1571 1569 1555 1546 1541 1535 1529 1523 1517 1510 1505 1498 1489 1484 1481 1476 1467 1458 1441 1433 1424 1416 1410 1406 1402 1399 1399 1401 1402 1408 1412 1414 1418 1423 1426
1560 1565 1564 1563 1563 1564 1562 1574 1573 1568 1563 1550 1545 1540 1534 1528 1522 1515 1509 1501 1493 1485 1480 1474 1464 1464 1450 1438 1433 1426 1417 1410 1406 1399 1395 1393 1392 1398 1400 1402 1406 1411 1413 1417
1556 1564 1565 1573 1570 1568 1565 1566 1573 1570 1561 1550 1545 1538 1532 1527 1523 1516 1510 1504 1497 1491 1487 1482 1477 1463 1451 1443 1438 1431 1422 1413 1406 1400 1395 1391 1390 1392 1394 1395 1398 1402 1406 1407
1558 1563 1590 1566 1563 1563 1566 1562 1559 1559 1554 1549 1544 1539 1534 1529 1522 1516 1510 1503 1495 1488 1482 1476 1466 1457 1452 1449 1441 1433 1428 1419 1407 1400 1396 1390 1385 1384 1384 1386 1386 1392 1395 1396
1584 1568 1563 1560 1560 1563 1563 1567 1556 1555 1550 1546 1541 1536 1532 1527 1522 1516 1510 1504 1498 1490 1483 1476 1469 1463 1457 1450 1445 1439 1431 1424 1415 1409 1402 1395 1385 1379 1377 1377 1380 1381 1385 1381
1567 1573 1585 1563 1557 1555 1555 1565 1553 1552 1548 1543 1539 1537 1530 1523 1518 1513 1509 1504 1497 1491 1484 1477 1470 1464 1459 1454 1449 1441 1436 1430 1420 1412 1412 1403 1389 1378 1373 1374 1376 1373 1377 1383
1569 1592 1574 1556 1555 1554 1563 1568 1551 1549 1545 1542 1538 1535 1528 1522 1517 1512 1507 1502 1497 1490 1483 1477 1472 1465 1460 1457 1452 1446 1438 1434 1427 1420 1409 1402 1391 1377 1369 1369 1367 1369 1372 1376
1570 1593 1583 1554 1554 1560 1556 1549 1547 1545 1543 1539 1535 1531 1526 1522 1517 1511 1505 1500 1495 1490 1485 1479 1475 1467 1461 1454 1452 1447 1442 1435 1430 1425 1420 1412 1398 1381 1369 1366 1365 1364 1370 1376
1570 1565 1552 1551 1551 1550 1548 1547 1545 1542 1539 1536 1532 1528 1524 1520 1516 1511 1506 1500 1495 1489 1484 1479 1473 1467 1462 1456 1451 1447 1442 1438 1435 1429 1424 1416 1403 1388 1379 1372 1368 1364 1362 1368
1561 1556 1556 1556 1553 1550 1547 1545 1543 1539 1536 1532 1529 1525 1521 1517 1512 1508 1504 1498 1492 1487 1482 1477 1472 1468 1463 1457 1451 1447 1442 1441 1438 1432 1420 1409 1405 1397 1390 1386 1378 1372 1366 1363
1558 1553 1550 1550 1548 1546 1545 1543 1540 1536 1534 1530 1526 1522 1518 1514 1509 1504 1500 1495 1490 1485 1480 1476 1471 1466 1462 1457 1453 1448 1443 1440 1436 1431 1425 1418 1409 1402 1399 1388 1379 1375 1372 1367
1557 1549 1547 1544 1544 1544 1542 1540 1537 1534 1530 1527 1523 1519 1516 1512 1507 1502 1497 1492 1488 1483 1478 1473 1468 1463 1459 1455 1452 1448 1443 1441 1435 1431 1427 1423 1413 1406 1402 1396 1392 1386 1378 1372
1550 1547 1544 1544 1543 1541 1539 1537 1534 1531 1528 1524 1521 1517 1513 1509 1505 1500 1495 1490 1485 1481 1476 1471 1466 1462 1459 1455 1451 1446 1442 1438 1434 1429 1426 1420 1414 1407 1403 1400 1395 1389 1385 1383
1547 1545 1544 1542 1541 1539 1536 1533 1531 1528 1525 1521 1517 1513 1509 1506 1501 1496 1491 1487 1483 1478 1474 1470 1466 1462 1458 1455 1451 1447 1443 1439 1435 1431 1429 1424 1419 1413 1407 1401 1397 1394 1394 1388
1544 1543 1542 1540 1538 1535 1533 1530 1527 1524 1521 1517 1514 1510 1506 1502 1498 1494 1489 1484 1480 1476 1473 1470 1467 1462 1458 1455 1450 1445 1442 1439 1435 1431 1428 1424 1419 1415 1412 1409 1405 1401 1398 1396
1541 1540 1539 1537 1534 1532 1529 1527 1525 1521 1518 1514 1510 1507 1503 1499 1495 1491 1487 1482 1477 1473 1471 1468 1463 1460 1457 1452 1448 1444 1440 1437 1433 1430 1426 1423 1420 1417 1414 1412 1407 1402 1400 1396
1538 1537 1535 1533 1531 1529 1527 1525 1522 1518 1514 1511 1508 1504 1500 1496 1492 1488 1484 1481 1478 1474 1469 1466 1462 1459 1455 1452 1448 1444 1440 1437 1432 1428 1427 1425 1422 1418 1416 1413 1411 1407 1405 1402
1534 1533 1532 1530 1528 1526 1524 1521 1518 1515 1512 1508 1505 1501 1497 1494 1490 1486 1483 1479 1475 1472 1468 1463 1459 1454 1450 1448 1445 1443 1440 1436 1434 1431 1428 1425 1422 1419 1417 1414 1411 1409 1408 1406
1531 1530 1528 1527 1526 1524 1521 1518 1515 1513 1509 1506 1502 1499 1496 1493 1489 1485 1481 1477 1473 1469 1464 1460 1455 1450 1447 1442 1438 1435 1434 1434 1433 1431 1427 1423 1420 1418 1415 1411 1410 1409 1407 1404
1526 1526 1524 1523 1522 1520 1518 1515 1513 1511 1508 1504 1501 1498 1494 1491 1488 1484 1481 1477 1474 1470 1466 1460 1454 1449 1445 1441 1436 1430 1427 1427 1427 1426 1425 1422 1419 1417 1414 1411 1408 1405 1402 1401
1522 1522 1521 1520 1518 1517 1515 1513 1510 1508 1506 1503 1500 1497 1494 1491 1487 1484 1479 1476 1473 1469 1464 1459 1454 1449 1445 1441 1436 1430 1427 1426 1426 1425 1424 1421 1419 1418 1415 1412 1409 1404 1402 1400
1517 1517 1517 1516 1515 1513 1512 1510 1508 1506 1504 1502 1499 1497 1494 1491 1488 1485 1482 1478 1474 1470 1464 1458 1453 1448 1444 1440 1436 1433 1430 1428 1427 1425 1423 1421 1419 1417 1414 1412 1410 1407 1403 1400
1511 1512 1513 1513 1512 1510 1509 1508 1506 1504 1502 1500 1498 1496 1494 1491 1489 1485 1482 1479 1475 1472 1467 1462 1458 1453 1448 1443 1440 1437 1434 1431 1429 1427 1424 1422 1419 1415 1412 1411 1409 1408 1405 1401
1507 1507 1508 1509 1508 1507 1506 1504 1503 1502 1501 1499 1498 1496 1493 1491 1489 1486 1484 1481 1477 1473 1469 1465 1461 1456 1452 1447 1444 1440 1437 1434 1431 1429 1426 1423 1419 1417 1414 1410 1407 1404 1402 1400
1502 1503 1503 1504 1504 1503 1502 1501 1501 1501 1500 1498 1497 1495 1493 1491 1489 1486 1484 1481 1478 1474 1471 1467 1463 1459 1454 1450 1446 1442 1439 1436 1433 1430 1426 1423 1420 1417 1414 1411 1408 1405 1402 1398
1497 1498 1499 1499 1499 1499 1498 1498 1498 1499 1498 1497 1496 1494 1493 1491 1489 1487 1484 1481 1478 1475 1472 1469 1465 1461 1457 1454 1449 1445 1441 1437 1434 1430 1427 1424 1421 1418 1414 1411 1408 1404 1401 1397
1492 1493 1493 1494 1495 1495 1495 1495 1495 1496 1496 1496 1494 1494 1493 1491 1489 1486 1484 1481 1478 1475 1473 1470 1466 1463 1459 1455 1451 1447 1443 1439 1435 1431 1427 1423 1419 1415 1411 1408 1405 1401 1397 1394
Wind_Speed
6 9 5 1 8 11 10 3 4 6 3 8 10 11 23 28 31 33 36 38 39 42 42 39 43 47 51 50 50 47 43 38 29 26 17 16 21 21 50 50 54 53 54 54
7 3 4 7 7 9 7 3 3 4 6 7 20 22 25 32 35 34 38 41 40 41 42 45 47 47 54 53 50 50 49 47 41 28 25 20 19 28 24 48 51 55 57 61
2 5 3 5 1 2 5 1 3 3 7 9 11 21 27 32 33 36 39 41 41 38 36 37 39 41 47 51 50 47 49 49 48 39 32 24 20 25 30 25 53 55 54 65
4 4 2 4 3 7 7 6 4 3 6 13 17 21 24 29 32 35 36 39 40 41 34 40 39 39 41 44 48 49 47 48 48 48 42 30 20 24 27 33 28 48 57 61
1 2 3 1 3 5 5 4 4 3 9 15 20 16 20 29 31 32 32 33 36 33 34 40 37 36 38 41 42 48 48 47 47 45 45 39 23 16 27 25 33 52 34 43
2 1 3 5 3 3 8 1 7 7 9 13 17 9 5 31 31 30 30 32 31 35 35 34 34 33 35 34 40 42 46 45 45 44 42 38 32 14 12 24 24 18 36 40
2 2 6 4 1 4 2 5 11 12 13 13 5 18 27 27 28 27 30 27 34 31 32 31 30 33 33 33 34 35 39 41 42 43 40 47 40 25 7 4 16 24 28 30
2 3 4 3 1 5 8 10 9 12 14 16 22 23 24 23 23 26 26 31 31 29 28 28 27 29 31 32 30 30 34 37 40 39 37 38 43 39 25 8 4 14 20 22
5 5 4 6 5 5 4 4 12 9 16 21 22 23 22 20 24 24 25 29 29 27 27 27 28 26 29 32 26 29 32 33 35 38 36 35 37 42 40 30 22 15 5 6
4 5 6 15 7 9 1 7 11 12 17 17 20 21 18 23 22 24 25 27 26 26 25 26 27 26 25 24 25 27 29 30 29 33 40 37 33 36 37 36 33 30 26 22
4 11 11 5 6 2 7 8 13 16 16 18 19 18 19 22 23 25 25 27 24 24 24 27 25 24 23 23 23 24 25 29 28 27 31 36 33 27 30 34 33 33 32 34
4 13 10 8 3 3 9 11 13 18 18 20 18 17 22 22 22 22 28 25 26 24 29 29 26 26 25 22 21 23 25 25 26 26 26 29 32 28 21 26 30 28 27 28
13 11 4 5 4 9 12 15 15 17 20 16 18 22 20 20 22 27 25 26 27 27 28 29 27 25 22 21 21 21 23 24 25 25 26 25 28 30 29 22 21 28 31 26
6 2 6 8 8 11 15 14 18 16 12 19 21 20 20 20 25 23 26 26 27 28 23 23 21 21 20 21 22 19 20 21 23 23 21 21 24 22 25 29 20 20 22 27
5 5 7 10 14 15 16 15 13 15 19 19 19 19 21 23 22 21 25 23 24 22 21 21 22 24 22 21 20 20 20 20 20 20 20 19 19 18 19 21 24 21 14 17
4 10 11 11 12 11 10 13 14 16 18 20 18 19 20 22 23 23 21 21 23 23 22 22 19 21 22 21 20 19 20 21 20 19 19 19 18 17 19 19 19 22 22 14
3 7 6 6 6 8 10 11 16 18 16 16 18 20 22 24 22 21 20 20 18 16 12 18 23 24 25 24 22 20 19 18 18 18 19 18 17 16 15 16 16 15 17 20
8 6 4 6 7 10 13 17 14 12 13 17 19 21 22 20 21 22 21 18 13 14 21 25 27 28 27 26 24 19 16 16 15 16 16 17 17 15 15 15 16 15 15 13
7 5 4 7 9 13 17 14 11 12 14 16 18 18 18 20 21 20 17 17 23 27 27 24 24 23 24 23 22 18 17 16 15 14 15 15 16 16 16 17 17 17 16 16
6 4 5 7 12 17 13 9 11 13 14 15 16 18 19 17 18 19 21 21 23 22 22 26 25 23 17 21 21 18 14 10 13 14 14 12 14 15 16 16 17 17 17 16
5 4 6 8 12 11 8 9 11 12 12 13 15 15 14 15 16 18 22 25 24 26 26 25 25 23 19 20 20 16 11 9 9 11 11 12 12 13 13 15 16 16 16 15
5 5 5 8 9 6 7 9 10 10 9 11 12 12 12 14 16 16 18 23 22 25 27 28 28 25 20 19 20 18 16 13 10 8 8 9 11 11 11 11 12 12 13 13
5 5 6 7 6 5 6 7 9 6 6 7 10 12 13 12 14 16 17 20 18 20 24 25 24 24 23 22 21 21 19 17 16 16 15 15 14 13 13 12 11 10 10 10
7 7 6 5 5 6 4 4 5 3 3 5 8 9 10 11 13 13 12 15 17 18 21 22 23 23 24 23 23 23 23 22 21 19 18 16 16 16 15 14 15 16 15 13
9 8 7 6 7 5 3 3 2 5 4 5 6 8 8 9 12 12 12 13 15 17 18 20 21 22 24 24 24 24 24 23 22 21 20 19 18 18 17 16 16 16 16 17
12 10 8 8 7 4 3 3 7 7 6 4 3 4 5 6 8 9 11 12 12 14 16 17 19 20 21 22 22 22 22 22 22 22 22 21 20 19 19 18 17 17 17 17
14 12 11 9 7 6 5 8 9 9 7 4 3 2 3 5 6 8 9 10 11 12 14 15 17 18 19 20 20 20 21 21 21 21 22 22 22 22 22 21 20 20 19 19
Wind_Direction
109 98 49 134 45 41 49 252 93 280 288 291 308 309 331 344 342 342 342 353 357 1 2 4 5 2 11 21 18 19 19 14 0 347 315 263 243 248 238 242 237 235 231 228
202 191 326 72 85 64 49 12 352 295 292 256 320 334 339 348 346 345 348 349 352 356 358 360 5 1 5 16 16 15 17 16 9 354 340 301 258 246 259 240 243 235 233 231
336 287 124 28 277 121 65 89 165 13 266 305 321 335 340 342 345 345 352 357 354 351 352 354 357 3 7 7 10 14 15 16 15 9 355 337 287 250 240 253 242 235 237 234
296 137 60 237 153 147 110 45 330 279 303 323 322 336 341 346 344 347 351 355 356 354 350 354 357 360 2 4 5 10 13 14 16 14 3 351 316 265 247 242 247 236 233 237
69 312 158 57 166 189 180 250 315 273 307 335 339 330 337 349 349 346 351 355 352 356 355 351 355 357 357 1 3 4 7 12 13 10 5 358 346 289 251 249 244 236 253 226
347 321 236 241 220 355 151 301 334 303 310 318 341 341 289 340 347 349 354 351 352 347 349 351 353 357 354 354 359 2 359 3 14 14 4 7 7 349 255 249 238 239 240 246
304 227 291 248 284 74 78 242 291 303 317 336 318 323 332 342 346 351 350 354 349 352 351 353 354 351 352 353 356 356 359 352 4 8 10 16 19 24 355 232 210 222 236 240
320 24 318 34 187 141 226 272 305 331 342 335 345 338 343 345 348 348 349 346 350 349 347 346 347 350 348 352 347 353 353 352 355 2 5 9 20 31 40 53 187 215 225 230
170 227 262 199 205 207 247 335 343 335 353 341 339 346 342 352 351 351 345 346 345 345 346 347 349 354 353 352 346 346 345 351 347 354 360 359 14 27 36 44 54 70 159 231
296 350 339 335 286 269 318 341 338 344 345 346 341 343 347 349 346 344 344 344 345 348 351 350 354 354 356 350 354 355 351 344 350 352 354 6 7 21 30 36 45 50 52 55
243 279 268 288 263 309 326 339 337 343 340 339 337 339 342 342 339 341 339 343 345 348 344 343 348 343 349 346 348 350 351 350 349 354 359 358 7 10 22 32 36 42 47 50
257 297 305 247 276 334 341 342 343 336 332 335 336 346 344 341 340 336 338 341 342 340 337 339 338 335 338 344 350 349 342 350 353 355 1 2 5 11 19 28 30 38 46 49
283 309 59 88 27 337 329 333 340 336 334 341 343 341 340 338 334 335 338 339 340 339 337 338 340 343 344 342 342 349 346 342 344 351 357 2 6 8 15 13 28 29 30 39
40 49 25 1 350 330 330 333 333 336 345 338 340 334 333 332 334 340 341 341 339 339 346 350 353 357 358 356 351 343 343 340 344 349 352 354 6 13 9 13 11 26 33 33
65 30 349 335 335 341 339 341 349 345 341 339 335 334 332 335 342 344 345 346 346 349 355 356 353 354 354 350 351 350 350 344 345 344 349 354 1 20 16 14 15 18 15 43
305 327 324 323 332 340 345 343 344 340 336 334 334 335 336 339 341 345 348 350 355 356 357 1 9 3 359 349 343 344 344 344 346 346 349 349 356 4 13 19 23 17 16 9
297 317 328 344 358 357 353 344 338 337 336 336 336 337 341 346 348 350 354 353 353 0 357 346 342 343 340 334 343 348 339 342 349 352 352 351 355 356 352 354 10 14 14 0
307 300 323 334 345 343 342 342 344 341 338 335 339 339 343 349 352 351 354 359 359 347 340 337 332 330 326 323 319 318 337 343 343 350 350 354 355 356 358 354 353 349 351 355
237 258 308 322 333 338 342 344 342 336 339 340 339 348 349 347 350 354 359 354 350 351 354 350 343 338 340 336 327 314 300 315 330 331 338 341 342 343 345 350 348 343 339 331
214 269 303 321 330 337 341 339 334 338 342 344 347 348 353 359 358 357 358 5 6 1 352 349 349 353 357 359 355 348 332 316 330 345 349 347 347 342 340 338 341 344 341 335
241 274 304 321 335 339 332 332 335 346 349 351 360 4 9 5 6 8 6 10 9 4 6 12 13 13 14 8 11 15 17 10 358 358 354 347 337 334 335 335 336 341 345 341
248 282 294 320 333 327 320 331 336 347 356 3 12 16 17 17 18 25 12 12 11 13 18 20 20 19 18 22 26 29 41 48 43 35 24 25 28 33 23 9 358 351 345 339
264 264 283 312 319 314 313 327 339 354 13 27 24 27 30 25 18 18 14 10 12 15 20 23 23 28 33 36 37 38 37 34 29 18 16 12 5 359 358 355 348 344 346 344
253 242 273 290 291 303 297 332 335 358 82 54 42 37 30 34 34 29 23 22 25 25 25 26 27 27 29 32 34 36 35 35 33 29 25 17 10 2 352 341 331 328 328 328
237 242 256 259 282 296 265 315 196 150 133 90 66 50 35 30 31 29 28 26 25 27 30 31 30 30 30 29 28 28 28 27 26 24 20 17 15 13 8 3 356 348 338 329
233 243 252 267 284 265 255 214 178 160 168 155 98 52 41 32 29 25 28 31 29 28 25 24 23 23 24 25 25 24 22 20 18 16 13 11 9 6 3 359 355 352 348 342
224 235 243 245 264 247 247 193 174 166 171 148 151 98 21 21 29 31 27 24 27 22 16 15 13 14 14 15 17 16 14 14 12 10 8 5 2 358 357 355 351 347 343 339